Location: Newark
(45.8667°N, 9.7333°E)
Time: 05:52:51
(UTC+00:00)

A-11 Canister half - Pass Details

Date: 26 January 2020
Orbit: 1517 x 1683 km, 47.2° (Epoch: 19 February)

Event Time Altitude Azimuth Distance (km) Brightness Sun altitude
Rises 06:38:28 0° 289° (WNW) 4,665 - -2.7°
Exits shadow 06:39:25 - 286° (WNW) 4,424 10.7 -2.6°
Reaches altitude 10° 06:42:39 10° 272° (W) 3,687 10.4 -2.0°
Maximum altitude 06:48:28 19° 233° (SW) 3,066 10.4 -1.1°
Drops below altitude 10° 06:54:22 10° 193° (SSW) 3,727 11.2 -0.2°
Sets 06:58:40 0° 176° (S) 4,734 12.1 0.4°
